This is the latest recevied weather packets stored in our database for station/object OK1UZT-14. If no packets are shown the sender has not sent any weather packets the latest 10 day(s).
| Time | Temp. | Humidity | Pressure | Rain* | Wind** | Luminosity | Snow |
|---|---|---|---|---|---|---|---|
| 1788255020 | 22.78° C | 49% | 1019.3 hPa | - | - | - | - |
| 1788254420 | 22.22° C | 51% | 1019.3 hPa | - | - | - | - |
| 1788253820 | 21.11° C | 53% | 1019.5 hPa | - | - | - | - |
| 1788253220 | 20.56° C | 54% | 1019.5 hPa | - | - | - | - |
| 1788252020 | 20.56° C | 52% | 1019.5 hPa | - | - | - | - |
| 1788251420 | 21.11° C | 52% | 1019.5 hPa | - | - | - | - |
| 1788250820 | 20.56° C | 54% | 1019.4 hPa | - | - | - | - |
| 1788250220 | 21.11° C | 55% | 1019.3 hPa | - | - | - | - |
| 1788249620 | 20.56° C | 55% | 1019.3 hPa | - | - | - | - |
| 1788249020 | 19.44° C | 57% | 1019.4 hPa | - | - | - | - |
| 1788248420 | 20° C | 57% | 1019.2 hPa | - | - | - | - |
| 1788247820 | 19.44° C | 57% | 1019.1 hPa | - | - | - | - |
| 1788247220 | 19.44° C | 59% | 1018.9 hPa | - | - | - | - |
| 1788246620 | 18.89° C | 59% | 1018.9 hPa | - | - | - | - |
| 1788246020 | 18.89° C | 61% | 1018.7 hPa | - | - | - | - |
| 1788245420 | 18.89° C | 61% | 1018.7 hPa | - | - | - | - |
| 1788244820 | 18.33° C | 62% | 1018.6 hPa | - | - | - | - |
| 1788244220 | 18.33° C | 63% | 1018.3 hPa | - | - | - | - |
| 1788243620 | 18.33° C | 64% | 1018.5 hPa | - | - | - | - |
| 1788243020 | 17.78° C | 64% | 1018.3 hPa | - | - | - | - |
| 1788242422 | 17.78° C | 64% | 1018.1 hPa | - | - | - | - |
| 1788241818 | 17.78° C | 64% | 1018 hPa | - | - | - | - |
| 1788241217 | 17.78° C | 65% | 1017.9 hPa | - | - | - | - |
| 1788240618 | 17.22° C | 65% | 1017.7 hPa | - | - | - | - |
| 1788240018 | 17.22° C | 66% | 1017.5 hPa | - | - | - | - |
* Rain since midnight (hover to see other rain measurements)
** Current wind speed in m/s (hover to see current wind gust speed)